Content
SEND FEEDBACK

Daily
Averages
Monthly
Summary
United States of America

SAULT STE. MARIE, MICHIGAN


Home > North America > United States > Michigan
Elevation: 699 feet     Latitude: 46 28N     Longitude: 084 22W

WEATHER
 
SELECT A DAY
Number of Records: 215,075;   Date Range: 1/1/95 - 7/29/14
 
SHARE

PRINT THIS DATA

[ ← Previous Day ]
WEATHER ALMANAC - JUNE 26, 2013
[ Next Day → ]
[ °C ]   °F
We're sorry. There is no daily almanac available for Sault Ste. Marie, Michigan on June 26, 2013.
WEATHER BY HOUR - JUNE 26, 2013
[ °C ]   °F
Local TimeTemperatureDewpointHumidityBarometerVisibilityWind DirectionWind SpeedGust SpeedPrecipitationEventsConditions
1:55 AM61.0 °F57.0 °F87 %29.79 in10.0 miCalmClear
2:55 AM60.1 °F57.9 °F93 %29.79 in10.0 miCalmClear
3:55 AM59.0 °F55.9 °F90 %29.79 in9.0 miCalmClear
4:08 AM57.9 °F55.9 °F93 %29.80 in1.8 miCalmClear
4:20 AM57.9 °F55.9 °F93 %29.80 in3.0 miCalmClear
4:55 AM60.1 °F57.0 °F90 %29.78 in8.0 miCalmClear
5:55 AM59.0 °F55.9 °F90 %29.78 in8.0 miCalmClear
6:55 AM60.1 °F57.0 °F90 %29.80 in9.0 miCalmClear
7:55 AM64.0 °F59.0 °F84 %29.80 in10.0 miCalmClear
8:55 AM70.0 °F62.1 °F76 %29.79 in10.0 miVariable3.5 mphClear
9:55 AM73.9 °F62.1 °F66 %29.80 in10.0 miCalmClear
10:55 AM77.0 °F63.0 °F62 %29.79 in10.0 miSW (230°)5.8 mphClear
11:55 AM81.0 °F66.0 °F60 %29.80 in10.0 miVariable3.5 mphClear
12:55 PM82.9 °F64.0 °F53 %29.78 in10.0 miCalmClear
1:55 PM84.0 °F63.0 °F49 %29.78 in10.0 miVariable3.5 mphClear
2:55 PM84.9 °F63.0 °F48 %29.77 in10.0 miSouth (190°)9.2 mphClear
3:55 PM84.9 °F63.0 °F48 %29.76 in10.0 miSSE (160°)6.9 mphClear
4:55 PM84.9 °F64.0 °F49 %29.76 in10.0 miVariable3.5 mphScattered Clouds
5:55 PM84.9 °F64.0 °F49 %29.74 in10.0 miVariable4.6 mphClear
6:55 PM84.0 °F60.1 °F44 %29.74 in10.0 miSouth (180°)6.9 mphClear
7:55 PM82.0 °F61.0 °F49 %29.74 in10.0 miSSE (150°)5.8 mphClear
8:55 PM78.1 °F60.1 °F54 %29.73 in10.0 miSE (130°)5.8 mphClear
9:55 PM73.9 °F60.1 °F62 %29.75 in10.0 miSouth (190°)6.9 mphClear
10:55 PM73.0 °F60.1 °F64 %29.77 in10.0 miNorth (350°)4.6 mphMostly Cloudy
11:55 PM72.0 °F60.1 °F66 %29.76 in10.0 miCalmMostly Cloudy
Hourly data recorded from KANJ, located miles away from Sault Ste. Marie, Michigan







STORIES FROM OUR PARTNERS